Volver al catálogo

EXPRESS AT2

ActivoComunicacionesGEO
NORAD 39613·PAYLOAD·🇷🇺 Russia

Lanzado Mar 15, 2014 desde Baikonur Cosmodrome

Loading…

TLE

ActualizadoSource: Space-Track

Época: Sep 14, 2026, 14:04 UTC

1 39613U 14010B   26257.58619440  .00000071  00000-0  00000-0 0  9995
2 39613   0.0272 256.6516 0000406 181.6965 182.2630  1.00271067 45399

Sigue EXPRESS AT2 en tiempo real con AllMySat

Download on the App Store